Rio de Janeiro, Brazil

3:42 PM -03 on June 25, 2018 (GMT -0300)
Santos Dumont

Weather History for SBRJ - September, 2017

Change the Weather History Date:

Wednesday, September 13, 2017

  Actual Average Record
Temperature  
Mean Temperature 71 °F -  
Max Temperature 78 °F 77 °F 95 °F (2016)
Min Temperature 64 °F 67 °F 62 °F (2015)
Cooling Degree Days 6    
Growing Degree Days 21 (Base 50)    
Moisture  
Dew Point 65 °F    
Average Humidity 77    
Maximum Humidity 94    
Minimum Humidity 57    
Precipitation  
Precipitation 0.00 in - - ()
Sea Level Pressure  
Sea Level Pressure 30.09 in    
Wind  
Wind Speed 6 mph ()    
Max Wind Speed 15 mph    
Max Gust Speed -    
Visibility 6.2 miles    
Events      
Averages and records for this station are not official NWS values.
T = Trace of Precipitation, MM = Missing Value Source: Averaged Metar Reports

Daily Weather History Graph

Daily Weather History Graph

Search for Another Location

Airport or City:

Astronomy

Sep. 13, 2017 Rise Set
Actual Time 5:51 AM -03 5:46 PM -03
Civil Twilight 5:28 AM -03 6:08 PM -03
Nautical Twilight 5:02 AM -03 6:34 PM -03
Astronomical Twilight 4:36 AM -03 7:00 PM -03
Moon 12:08 AM -03 (9/13) 11:28 AM -03 (9/13)
Length of Visible Light 12h 39m
Length of Day
11h 55m
Last Quarter, 46% of the Moon is Illuminated
Sep 13
Last Quarter
Sep 20
New
Sep 27
First Quarter
Oct 5
Full
Oct 12
Last Quarter

Hourly Weather History & Observations

Time (-03) Temp. Dew Point Humidity Pressure Visibility Wind Dir Wind Speed Gust Speed Precip Events Conditions
12:00 AM 69.8 °F 64.4 °F 83% 30.12 in - NNW 5.8 mph - N/A   Clear
1:00 AM 69.8 °F 66.2 °F 88% 30.09 in - North 2.3 mph - N/A   Clear
2:00 AM 68.0 °F 64.4 °F 88% 30.09 in - SSW 3.5 mph - N/A   Clear
3:00 AM 68.0 °F 64.4 °F 88% 30.09 in - SW 2.3 mph - N/A   Clear
4:00 AM 66.2 °F 64.4 °F 94% 30.09 in - South 3.5 mph - N/A   Clear
5:00 AM 64.4 °F 62.6 °F 94% 30.12 in - South 4.6 mph - N/A   Clear
6:00 AM 66.2 °F 64.4 °F 94% 30.12 in - SSE 6.9 mph - N/A   Clear
7:00 AM 68.0 °F 64.4 °F 88% 30.15 in - SE 6.9 mph - N/A   Clear
8:00 AM 71.6 °F 66.2 °F 83% 30.15 in - SE 6.9 mph - N/A   Clear
9:00 AM 75.2 °F 66.2 °F 73% 30.18 in - SSE 8.1 mph - N/A   Clear
10:00 AM 77.0 °F 64.4 °F 65% 30.18 in 6.2 mi SSE 10.4 mph - N/A   Partly Cloudy
11:00 AM 77.0 °F 66.2 °F 69% 30.15 in 6.2 mi SSE 11.5 mph - N/A   Partly Cloudy
12:00 PM 77.0 °F 64.4 °F 65% 30.12 in - SSE 11.5 mph - N/A   Clear
1:00 PM 75.2 °F 64.4 °F 69% 30.09 in - South 13.8 mph - N/A   Clear
2:00 PM 77.0 °F 64.4 °F 65% 30.06 in - SSE 12.7 mph - N/A   Clear
3:00 PM 77.0 °F 64.4 °F 65% 30.04 in - SSE 15.0 mph - N/A   Clear
4:00 PM 78.8 °F 62.6 °F 57% 30.04 in - South 10.4 mph - N/A   Clear
5:00 PM 75.2 °F 64.4 °F 69% 30.04 in - South 13.8 mph - N/A   Clear
6:00 PM 77.0 °F 64.4 °F 65% 30.04 in - South 10.4 mph - N/A   Clear
7:00 PM 73.4 °F 64.4 °F 73% 30.06 in - South 6.9 mph - N/A   Clear
8:00 PM 69.8 °F 64.4 °F 83% 30.06 in - SSE 3.5 mph - N/A   Clear
9:00 PM 73.4 °F 64.4 °F 73% 30.06 in - East 3.5 mph - N/A   Clear
10:00 PM 71.6 °F 64.4 °F 78% 30.06 in - SE 6.9 mph - N/A   Clear
11:00 PM 69.8 °F 64.4 °F 83% 30.06 in - South 3.5 mph - N/A   Clear